Lid_Strength_Index
1 1 2 1 1 1 2 2 4 6 5 3 3 1 0 0 -0 -0 -0 1 2 3 4 4 3 3 3 2 2 1 1 1 0 0 -0 -0 -0 -0
1 1 2 1 1 1 2 2 2 4 5 3 2 1 0 0 0 -0 0 1 2 3 4 4 4 4 4 3 3 2 2 2 1 1 0 -0 -0 -0
1 2 2 1 2 2 1 2 2 2 4 3 2 1 1 1 1 0 0 0 0 3 3 4 4 4 5 4 4 4 3 2 2 2 1 1 0 -0
2 2 2 2 2 2 2 2 2 2 3 4 3 2 2 1 1 1 1 0 0 1 3 3 4 5 5 5 4 5 4 4 3 3 2 2 1 -0
1 2 2 2 2 2 2 2 2 2 2 3 3 2 2 1 2 1 1 1 0 1 2 2 3 4 5 6 6 5 6 6 6 6 5 4 2 1
1 1 1 2 2 2 2 2 2 2 2 3 3 3 2 2 2 3 3 1 2 0 1 1 3 4 5 5 6 5 6 7 7 8 8 7 6 5
1 1 1 2 3 2 2 2 2 3 3 3 4 3 3 3 4 3 3 2 2 1 1 1 2 2 3 5 4 4 6 6 7 8 8 8 8 7
2 1 4 5 5 6 5 5 2 2 3 3 4 4 4 3 2 3 3 4 5 1 2 2 1 1 1 3 5 5 6 6 7 8 7 7 8 8
2 2 2 1 1 1 3 3 3 3 2 2 3 3 3 2 2 3 3 3 4 2 2 3 1 2 1 0 6 6 7 6 7 7 7 7 8 8
1 1 1 1 1 1 1 1 1 1 2 2 1 1 1 1 1 2 2 2 2 1 1 4 2 2 1 3 6 7 6 6 8 8 7 7 8 8
1 1 1 1 3 3 1 2 2 2 2 3 3 5 6 6 5 3 3 3 4 3 1 3 3 3 2 3 4 6 7 7 9 8 8 7 8 8
1 1 4 2 8 6 2 2 3 2 2 2 1 2 2 1 4 4 2 4 4 4 2 3 3 3 4 2 3 5 5 8 7 7 7 8 8 4
2 2 1 8 9 9 5 2 3 2 3 2 2 1 1 1 1 1 1 2 3 3 2 2 3 3 3 4 2 1 1 4 3 6 8 8 8 8
2 2 1 7 9 8 7 5 6 6 1 2 2 2 2 2 1 1 1 1 0 1 1 2 2 3 3 4 4 2 1 1 1 2 3 7 8 10
1 4 6 7 8 7 8 8 9 3 2 3 3 2 2 1 1 1 1 0 0 0 0 1 1 2 2 3 4 3 3 2 1 4 6 6 6 6
4 4 3 4 5 3 4 7 3 1 2 2 2 2 1 2 2 1 2 2 2 2 1 0 1 1 3 2 2 3 2 3 5 6 7 7 8 8
2 2 2 2 2 2 2 2 1 1 2 2 2 2 2 3 2 1 2 2 3 3 3 5 6 7 9 5 3 2 2 5 5 6 8 10 9 8
3 3 3 3 3 3 2 2 2 2 2 2 2 2 3 3 3 2 2 3 4 3 3 4 4 4 5 8 10 4 2 4 4 5 7 11 12 12
3 3 3 3 3 2 2 2 2 2 1 2 2 2 3 3 3 3 3 3 3 3 3 2 3 3 5 6 9 12 5 4 5 5 6 8 11 12
2 3 3 2 2 2 2 2 2 2 2 2 2 2 2 3 3 3 3 3 3 3 3 2 3 3 4 5 9 10 14 5 7 10 11 13 14 13
2 2 2 2 2 2 2 2 2 2 2 2 2 2 2 2 3 3 3 9 7 3 4 3 5 10 6 6 9 10 10 11 8 9 11 11 12 14
2 2 2 1 1 1 1 1 2 2 2 2 2 2 2 2 3 3 3 3 3 3 4 5 4 4 5 7 10 12 14 13 12 11 11 9 7 9
2 2 1 1 1 1 1 1 2 2 2 2 2 2 2 3 2 2 2 3 3 3 3 3 3 5 7 9 11 11 13 12 12 13 14 13 12 11